Вернуться в каталог

COSMOS 2556

АктивенНавигацияSSO
NORAD 52713·PAYLOAD·🇷🇺 Russia

Запущен May 19, 2022 с Plesetsk Cosmodrome

Loading…

Ближайшие Пролёты (ближайшие 24 часа)

TLE

СвежийSource: Space-Track

Эпоха: Sep 14, 2026, 15:35 UTC

1 52713U 22054A   26257.64932106  .00001850  00000-0  73912-4 0  9994
2 52713  97.6372 209.2524 0002120 102.2412 257.9064 15.26471263240382

Отслеживайте COSMOS 2556 в реальном времени с AllMySat

Download on the App Store